FW9226 Weather Reports


Display with metric or nautical units.
time (UTC)temp
F
wind
direction
speed
MPH
gust
MPH
rain 1hr
in
rain 24hr
in
rain mn
in
humidity
%
barometer
mb
20260508163008 72 154 1.0 5.0 0.00 0.00 0.00 37 1020.6
20260508162005 71 167 0.0 4.0 0.00 0.00 0.00 39 1020.5
20260508161506 71 120 0.0 2.0 0.00 0.00 0.00 41 1020.5
20260508161006 70 153 1.0 2.0 0.00 0.00 0.00 39 1020.6
20260508160505 69 143 1.0 4.0 0.00 0.00 0.00 40 1020.6
20260508160007 69 172 1.0 4.0 0.00 0.00 0.00 40 1020.6
20260508155505 68 132 0.0 2.0 0.00 0.00 0.00 41 1020.6
20260508155007 67 96 0.0 2.0 0.00 0.00 0.00 43 1020.6
20260508154506 67 203 0.0 1.0 0.00 0.00 0.00 43 1020.6
20260508154005 67 355 0.0 1.0 0.00 0.00 0.00 52 1020.5
20260508153505 68 355 0.0 0.0 0.00 0.00 0.00 50 1020.6
20260508153006 68 355 0.0 1.0 0.00 0.00 0.00 54 1020.6
20260508152503 68 355 0.0 1.0 0.00 0.00 0.00 54 1020.6
20260508152006 68 355 0.0 0.0 0.00 0.00 0.00 52 1020.5
20260508151505 68 355 0.0 0.0 0.00 0.00 0.00 52 1020.5
20260508151005 66 355 0.0 0.0 0.00 0.00 0.00 57 1020.5
20260508150505 65 355 0.0 0.0 0.00 0.00 0.00 58 1020.5
20260508150005 64 355 0.0 1.0 0.00 0.00 0.00 59 1020.6
20260508145505 63 356 0.0 1.0 0.00 0.00 0.00 58 1020.4
20260508144505 59 261 0.0 0.0 0.00 0.00 0.00 64 1020.3
20260508143006 56 261 0.0 0.0 0.00 0.00 0.00 65 1020.3
20260508142505 56 261 0.0 0.0 0.00 0.00 0.00 64 1020.3
20260508142006 55 261 0.0 0.0 0.00 0.00 0.00 65 1020.2
20260508141006 55 261 0.0 1.0 0.00 0.00 0.00 62 1020.1
20260508140505 55 261 0.0 1.0 0.00 0.00 0.00 62 1020.0
20260508140005 55 261 0.0 1.0 0.00 0.00 0.00 62 1020.0
20260508135506 54 261 0.0 1.0 0.00 0.00 0.00 62 1020.0
20260508134505 54 276 0.0 1.0 0.00 0.00 0.00 61 1019.9
20260508134006 54 276 0.0 1.0 0.00 0.00 0.00 61 1020.0
20260508133006 54 276 0.0 1.0 0.00 0.00 0.00 61 1020.0
20260508132505 54 276 0.0 1.0 0.00 0.00 0.00 62 1020.0
20260508132005 54 276 0.0 1.0 0.00 0.00 0.00 62 1019.9
20260508131505 54 264 0.0 1.0 0.00 0.00 0.00 61 1020.0
20260508131006 54 264 0.0 1.0 0.00 0.00 0.00 63 1019.9
20260508130508 54 264 0.0 1.0 0.00 0.00 0.00 61 1019.8
20260508130008 54 264 0.0 1.0 0.00 0.00 0.00 61 1019.9
20260508125006 54 263 0.0 1.0 0.00 0.00 0.00 63 1019.9
20260508124506 54 276 0.0 1.0 0.00 0.00 0.00 62 1019.9
20260508123506 54 276 0.0 1.0 0.00 0.00 0.00 62 1019.8
20260508123005 54 276 0.0 1.0 0.00 0.00 0.00 63 1019.8
20260508122505 54 276 0.0 1.0 0.00 0.00 0.00 64 1019.8
20260508122005 54 276 0.0 1.0 0.00 0.00 0.00 64 1019.7
20260508121503 54 275 0.0 1.0 0.00 0.00 0.00 64 1019.6
20260508121008 54 275 0.0 1.0 0.00 0.00 0.00 63 1019.7
20260508120505 55 285 0.0 1.0 0.00 0.00 0.00 63 1019.7
20260508120008 54 288 0.0 1.0 0.00 0.00 0.00 63 1019.7
20260508115507 54 289 0.0 1.0 0.00 0.00 0.00 63 1019.7
20260508115005 55 289 0.0 1.0 0.00 0.00 0.00 63 1019.7
20260508114505 55 289 0.0 1.0 0.00 0.00 0.00 63 1019.8
20260508114006 55 289 0.0 1.0 0.00 0.00 0.00 63 1019.8
20260508113007 55 289 0.0 1.0 0.00 0.00 0.00 63 1019.8
20260508112506 55 289 0.0 1.0 0.00 0.00 0.00 64 1019.8
20260508112007 54 289 0.0 1.0 0.00 0.00 0.00 63 1019.7
20260508111505 54 298 0.0 0.0 0.00 0.00 0.00 64 1019.8
20260508111005 54 298 0.0 0.0 0.00 0.00 0.00 65 1019.9
20260508110505 54 298 0.0 0.0 0.00 0.00 0.00 66 1020.0
20260508110010 54 298 0.0 0.0 0.00 0.00 0.00 65 1019.9
20260508105503 53 298 0.0 1.0 0.00 0.00 0.00 65 1019.9
20260508105007 53 298 0.0 1.0 0.00 0.00 0.00 66 1020.0
20260508104506 53 298 0.0 1.0 0.00 0.00 0.00 67 1020.0
20260508104006 52 298 0.0 1.0 0.00 0.00 0.00 67 1020.0
20260508103504 52 298 0.0 1.0 0.00 0.00 0.00 67 1020.0
20260508103009 53 298 0.0 1.0 0.00 0.00 0.00 68 1020.1
20260508102506 54 272 0.0 1.0 0.00 0.00 0.00 66 1020.1
20260508102007 54 272 1.0 2.0 0.00 0.00 0.00 63 1020.0
20260508101502 55 274 1.0 2.0 0.00 0.00 0.00 63 1019.9
20260508100007 56 264 0.0 1.0 0.00 0.00 0.00 61 1019.8
20260508095506 57 262 0.0 1.0 0.00 0.00 0.00 60 1019.7
20260508095005 57 274 0.0 1.0 0.00 0.00 0.00 58 1019.8
20260508094508 57 293 0.0 3.0 0.00 0.00 0.00 58 1019.7
20260508094009 57 300 0.0 3.0 0.00 0.00 0.00 58 1019.8
20260508093505 57 274 0.0 2.0 0.00 0.00 0.00 59 1019.8
20260508093001 57 274 0.0 2.0 0.00 0.00 0.00 58 1019.8
20260508092505 57 279 0.0 1.0 0.00 0.00 0.00 56 1019.8
20260508091505 58 289 0.0 1.0 0.00 0.00 0.00 57 1019.9
20260508091004 58 290 0.0 1.0 0.00 0.00 0.00 55 1019.9
20260508090505 58 274 1.0 2.0 0.00 0.00 0.00 56 1020.0
20260508085505 57 285 1.0 2.0 0.00 0.00 0.00 55 1020.0
20260508085007 57 288 0.0 2.0 0.00 0.00 0.00 55 1020.0
20260508084005 57 340 0.0 2.0 0.00 0.00 0.00 55 1020.0
20260508083505 57 277 0.0 1.0 0.00 0.00 0.00 56 1020.0
20260508083005 57 277 0.0 1.0 0.00 0.00 0.00 56 1020.0
20260508082506 57 276 0.0 1.0 0.00 0.00 0.00 56 1020.1
20260508082006 57 276 0.0 1.0 0.00 0.00 0.00 55 1020.1
20260508081505 57 276 0.0 1.0 0.00 0.00 0.00 55 1020.1
20260508081007 57 271 0.0 2.0 0.00 0.00 0.00 54 1020.2
20260508080500 57 269 0.0 2.0 0.00 0.00 0.00 56 1020.1
20260508080002 57 276 0.0 1.0 0.00 0.00 0.00 56 1020.2
20260508075505 57 282 0.0 1.0 0.00 0.00 0.00 56 1020.2
20260508075005 57 278 0.0 1.0 0.00 0.00 0.00 56 1020.1
20260508074501 57 278 0.0 1.0 0.00 0.00 0.00 56 1020.1
20260508074006 57 283 0.0 1.0 0.00 0.00 0.00 57 1020.1
20260508073504 57 283 0.0 1.0 0.00 0.00 0.00 57 1020.3
20260508073006 57 283 0.0 1.0 0.00 0.00 0.00 57 1020.3
20260508072505 57 283 0.0 1.0 0.00 0.00 0.00 59 1020.3
20260508072005 57 52 0.0 1.0 0.00 0.00 0.00 57 1020.3
20260508071505 57 360 0.0 2.0 0.00 0.00 0.00 58 1020.3
20260508071005 57 284 0.0 2.0 0.00 0.00 0.00 58 1020.3
20260508070502 57 266 0.0 2.0 0.00 0.00 0.00 58 1020.3
20260508070006 57 274 0.0 1.0 0.00 0.00 0.00 58 1020.3
20260508065505 57 290 0.0 1.0 0.00 0.00 0.00 60 1020.3
20260508064507 58 290 0.0 2.0 0.00 0.00 0.00 58 1020.3
20260508064005 58 300 0.0 2.0 0.00 0.00 0.00 58 1020.3
20260508062505 58 303 0.0 1.0 0.00 0.00 0.00 58 1020.4
20260508062004 58 298 0.0 1.0 0.00 0.00 0.00 57 1020.5
20260508061505 58 298 0.0 1.0 0.00 0.00 0.00 58 1020.5
20260508061004 58 318 0.0 1.0 0.00 0.00 0.00 58 1020.4
20260508060505 58 319 0.0 0.0 0.00 0.00 0.00 60 1020.5
20260508060007 58 319 0.0 2.0 0.00 0.00 0.00 60 1020.5
20260508055005 57 2 0.0 1.0 0.00 0.00 0.00 62 1020.6
20260508054505 57 77 0.0 0.0 0.00 0.00 0.00 63 1020.6
20260508054006 57 77 0.0 0.0 0.00 0.00 0.00 63 1020.7
20260508053505 56 77 0.0 0.0 0.00 0.00 0.00 65 1020.8
20260508053006 56 77 0.0 0.0 0.00 0.00 0.00 65 1020.8
20260508052504 56 77 0.0 1.0 0.00 0.00 0.00 67 1020.8
20260508051501 55 77 0.0 1.0 0.00 0.00 0.00 71 1020.8
20260508051005 54 77 0.0 1.0 0.00 0.00 0.00 75 1020.9
20260508050006 55 77 0.0 1.0 0.00 0.00 0.00 88 1020.9
20260508045007 55 77 0.0 0.0 0.00 0.00 0.00 89 1020.6
20260508044504 55 77 0.0 0.0 0.00 0.00 0.00 89 1020.6
20260508044006 56 77 0.0 0.0 0.00 0.00 0.00 89 1020.7
20260508043505 56 77 0.0 0.0 0.00 0.00 0.00 89 1020.6
20260508043004 56 77 0.0 0.0 0.00 0.00 0.00 89 1020.7
20260508042006 57 77 0.0 0.0 0.00 0.00 0.00 87 1020.6
20260508041507 57 77 0.0 0.0 0.00 0.00 0.00 87 1020.6
20260508041005 57 77 0.0 0.0 0.00 0.00 0.00 87 1020.6
20260508040505 57 77 0.0 0.0 0.00 0.00 0.00 87 1020.5
20260508040006 57 77 0.0 0.0 0.00 0.00 0.00 86 1020.5
20260508035504 57 77 0.0 0.0 0.00 0.00 0.00 86 1020.5
20260508035004 58 77 0.0 0.0 0.00 0.00 0.00 85 1020.5
20260508034506 58 77 0.0 0.0 0.00 0.00 0.00 85 1020.4
20260508034005 58 77 0.0 0.0 0.00 0.00 0.00 84 1020.4
20260508033500 59 77 0.0 0.0 0.00 0.00 0.00 83 1020.4
20260508032505 60 77 0.0 0.0 0.00 0.00 0.00 81 1020.2
20260508032005 60 77 0.0 0.0 0.00 0.00 0.00 80 1020.1
20260508031500 61 77 0.0 0.0 0.00 0.00 0.00 80 1020.2
20260508031006 61 77 0.0 0.0 0.00 0.00 0.00 80 1020.1
20260508025501 62 77 0.0 1.0 0.00 0.00 0.00 77 1020.0
20260508025006 63 77 0.0 1.0 0.00 0.00 0.00 76 1020.0
20260508024506 63 77 0.0 1.0 0.00 0.00 0.00 75 1020.0
20260508023506 63 77 0.0 1.0 0.00 0.00 0.00 73 1020.1
20260508023006 64 77 0.0 1.0 0.00 0.00 0.00 71 1020.0
20260508022001 65 78 0.0 1.0 0.00 0.00 0.00 67 1020.1
20260508021506 65 78 0.0 1.0 0.00 0.00 0.00 66 1020.1
20260508021005 65 77 0.0 1.0 0.00 0.00 0.00 66 1020.1
20260508020505 65 266 0.0 1.0 0.00 0.00 0.00 62 1020.1
20260508020005 66 156 0.0 3.0 0.00 0.00 0.00 60 1020.1
20260508015505 66 150 0.0 3.0 0.00 0.00 0.00 59 1020.1
20260508015005 67 146 0.0 3.0 0.00 0.00 0.00 55 1020.2
20260508014507 67 75 0.0 3.0 0.00 0.00 0.00 52 1020.1
20260508014005 68 139 0.0 5.0 0.00 0.00 0.00 49 1020.1
20260508012505 69 16 0.0 2.0 0.00 0.00 0.00 39 1020.3
20260508012006 69 139 0.0 4.0 0.00 0.00 0.00 46 1020.2
20260508011505 69 100 1.0 4.0 0.00 0.00 0.00 44 1020.2
20260508011005 69 123 1.0 8.0 0.00 0.00 0.00 42 1020.1
20260508010500 70 37 1.0 8.0 0.00 0.00 0.00 40 1020.2
20260508005505 70 44 1.0 7.0 0.00 0.00 0.00 36 1020.2
20260508004006 71 104 2.0 8.0 0.00 0.00 0.00 34 1020.2
20260508003006 72 139 1.0 5.0 0.00 0.00 0.00 35 1020.2
20260508002504 72 280 1.0 5.0 0.00 0.00 0.00 34 1020.2
20260508002007 73 145 1.0 5.0 0.00 0.00 0.00 34 1020.1
20260508001505 73 122 1.0 6.0 0.00 0.00 0.00 33 1020.1
20260508000505 74 113 1.0 4.0 0.00 0.00 0.00 33 1020.1
20260508000007 74 58 1.0 5.0 0.00 0.00 0.00 36 1020.1
20260507235505 74 102 2.0 8.0 0.00 0.00 0.00 33 1020.1
20260507234505 75 110 2.0 7.0 0.00 0.00 0.00 37 1020.1
20260507234005 76 199 2.0 5.0 0.00 0.00 0.00 36 1020.1
20260507233505 76 167 2.0 7.0 0.00 0.00 0.00 34 1020.2
20260507233006 76 94 2.0 7.0 0.00 0.00 0.00 36 1020.2
20260507232505 77 109 2.0 6.0 0.00 0.00 0.00 38 1020.2
20260507231505 76 115 2.0 7.0 0.00 0.00 0.00 44 1020.1
20260507231007 75 79 3.0 9.0 0.00 0.00 0.00 42 1020.2
20260507230506 76 112 3.0 11.0 0.00 0.00 0.00 40 1020.2
20260507230005 76 118 2.0 11.0 0.00 0.00 0.00 38 1020.3
20260507225505 77 258 2.0 6.0 0.00 0.00 0.00 40 1020.4
20260507225010 76 123 2.0 6.0 0.00 0.00 0.00 42 1020.5
20260507224505 77 225 2.0 7.0 0.00 0.00 0.00 41 1020.4
20260507224006 77 56 2.0 7.0 0.00 0.00 0.00 37 1020.5
20260507223505 78 74 2.0 6.0 0.00 0.00 0.00 37 1020.4
20260507222505 78 129 2.0 8.0 0.00 0.00 0.00 37 1020.6
20260507222006 77 148 2.0 8.0 0.00 0.00 0.00 38 1020.7
20260507221504 77 221 2.0 5.0 0.00 0.00 0.00 40 1020.7
20260507221005 76 84 2.0 5.0 0.00 0.00 0.00 40 1020.7
20260507215507 76 198 2.0 8.0 0.00 0.00 0.00 41 1020.8
20260507215007 75 167 2.0 12.0 0.00 0.00 0.00 42 1020.9
20260507214005 75 252 3.0 6.0 0.00 0.00 0.00 47 1021.0
20260507213504 76 55 2.0 7.0 0.00 0.00 0.00 45 1020.9
20260507213011 76 68 2.0 7.0 0.00 0.00 0.00 48 1020.8
20260507212505 75 82 2.0 8.0 0.00 0.00 0.00 50 1021.0
20260507212007 76 139 2.0 8.0 0.00 0.00 0.00 48 1021.1
20260507211506 76 155 2.0 6.0 0.00 0.00 0.00 49 1021.3
20260507211005 75 317 2.0 9.0 0.00 0.00 0.00 51 1021.1
20260507210506 75 266 2.0 9.0 0.00 0.00 0.00 53 1021.2
20260507210007 76 44 2.0 9.0 0.00 0.00 0.00 48 1021.2
20260507205005 76 65 2.0 10.0 0.00 0.00 0.00 48 1021.1
20260507204507 75 115 2.0 6.0 0.00 0.00 0.00 50 1021.2
20260507204006 75 95 3.0 8.0 0.00 0.00 0.00 49 1021.0
20260507203506 75 110 3.0 8.0 0.00 0.00 0.00 50 1021.2
20260507203005 75 53 2.0 5.0 0.00 0.00 0.00 50 1021.1
20260507202505 75 186 2.0 5.0 0.00 0.00 0.00 51 1021.2
20260507202006 74 117 2.0 6.0 0.00 0.00 0.00 51 1021.2
20260507201010 74 122 2.0 8.0 0.00 0.00 0.00 49 1021.2
20260507200505 75 90 2.0 6.0 0.00 0.00 0.00 47 1021.4
20260507200008 75 79 2.0 5.0 0.00 0.00 0.00 53 1021.3
20260507195005 74 268 2.0 5.0 0.00 0.00 0.00 50 1021.2
20260507194506 75 107 2.0 8.0 0.00 0.00 0.00 49 1021.2
20260507193508 75 237 2.0 6.0 0.00 0.00 0.00 49 1021.4
20260507193003 75 229 2.0 6.0 0.00 0.00 0.00 53 1021.4
20260507192505 74 141 2.0 6.0 0.00 0.00 0.00 52 1021.3
20260507191506 75 117 2.0 6.0 0.00 0.00 0.00 54 1021.3
20260507191006 74 136 2.0 5.0 0.00 0.00 0.00 55 1021.2
20260507185505 73 130 2.0 8.0 0.00 0.00 0.00 55 1021.4
20260507184506 74 53 1.0 7.0 0.00 0.00 0.00 52 1021.4
20260507184005 75 37 1.0 4.0 0.00 0.00 0.00 51 1021.4
20260507183505 74 230 2.0 4.0 0.00 0.00 0.00 54 1021.3
20260507183006 74 131 2.0 6.0 0.00 0.00 0.00 52 1021.3
20260507182505 74 193 2.0 6.0 0.00 0.00 0.00 51 1021.3
20260507182005 74 81 2.0 5.0 0.00 0.00 0.00 50 1021.3
20260507181501 74 110 1.0 5.0 0.00 0.00 0.00 50 1021.4
20260507180505 73 113 1.0 4.0 0.00 0.00 0.00 51 1021.4
20260507175007 73 242 1.0 2.0 0.00 0.00 0.00 49 1021.5
20260507174505 72 65 1.0 4.0 0.00 0.00 0.00 51 1021.5
20260507174004 72 96 1.0 4.0 0.00 0.00 0.00 46 1021.4
20260507173500 73 187 1.0 3.0 0.00 0.00 0.00 48 1021.4
20260507172506 72 77 0.0 3.0 0.00 0.00 0.00 47 1021.4
20260507172007 72 219 1.0 3.0 0.00 0.00 0.00 48 1021.4
20260507171506 71 266 1.0 3.0 0.00 0.00 0.00 51 1021.3
20260507171006 71 139 0.0 3.0 0.00 0.00 0.00 48 1021.3
20260507170506 71 112 1.0 2.0 0.00 0.00 0.00 50 1021.2
20260507170005 70 249 1.0 3.0 0.00 0.00 0.00 49 1021.4
20260507165505 70 130 0.0 3.0 0.00 0.00 0.00 47 1021.4
20260507164505 69 217 1.0 3.0 0.00 0.00 0.00 50 1021.2
20260507164005 68 139 0.0 3.0 0.00 0.00 0.00 50 1021.2
20260507163505 67 145 1.0 2.0 0.00 0.00 0.00 53 1021.3